sat.trackr.live / text

‹ back to catalog

FOX-1A (AO-85)

NORAD 40967 · 2015-058D

PAYLOAD ACTIVE UNKNOWN

§ Identity

Operator
Country
US
Launch date
2015-10-08
Launch site
AFWTR
Launch vehicle
Mass (kg)
RCS (m²)

Purposes: comms, tech_demo

External: N2YO · Heavens-Above · Gunter

§ Orbital elements

Epoch: 2026-09-12T16:06:21.440736Z

Period
96.55 min
Inclination
64.7757°
Eccentricity
0.0137965
Mean motion
14.91382531 rev/d
Perigee alt
497.4 km
Apogee alt
689.8 km
Semi-major
6,971.8 km
B*
1.2068e-4
RAAN
7.0092°
Arg perigee
23.8137°
Mean anomaly
336.9276°
Rev number
12,661

§ Raw data

FOX-1A (AO-85)1 40967U 15058D   26255.67108149  .00001265  00000+0  12068-3 0  99942 40967  64.7757   7.0092 0137965  23.8137 336.9276 14.91382531126616

JSON: /api/v1/satellites/40967 · /tle

For live sub-satellite position, see the globe view (requires WebGL).

§ Visibility from observer

Set your observer location to see the next 7 days of passes ≥ 10°. The values pass through the URL so the page stays shareable.

No JS? Fill the form by hand. The geolocation button needs JavaScript.

§ Radio — SatNOGS DB

ModeDescriptionDownlinkUplink
DUV DUV TLM (inactive) 145.979 MHz
FM FM Transponder (inactive) 145.980 MHz 435.180 MHz
FM FM Transponder (current) (inactive) 145.979 MHz 435.172 MHz

3 transmitters · refreshed weekly from db.satnogs.org